When you browse on this site, cookies collect data to enhance your experience and personalize the content and advertising you see.
Visit our Privacy Policy to learn more. By continuing to use the site, you agree to this use of cookies and data.
  • In Hungary
  • List of Countries
  • For 7 days
  • Water Temperature
  • Weather Map
  • News
  • Weather Widgets
  • user-avatar
    Login

    Hourly Weather Hersonskiy

    Today, 27 February, Thursday

    Time Temperature Precipitation Wind Pressure Humidity
    00:00 +4°C° 0 mm 4 mps 726 mmHg 52%
    01:00 +4°C° 0 mm 3 mps 726 mmHg 52%
    02:00 +4°C° 0 mm 3 mps 725 mmHg 51%
    03:00 +4°C° 0 mm 3 mps 725 mmHg 51%
    04:00 +5°C° 0 mm 3 mps 725 mmHg 50%
    05:00 +5°C° 0 mm 3 mps 725 mmHg 49%
    06:00 +5°C° 0 mm 3 mps 725 mmHg 48%
    07:00 +7°C° 0 mm 3 mps 725 mmHg 46%
    08:00 +8°C° 0 mm 3 mps 725 mmHg 45%
    09:00 +9°C° 0 mm 3 mps 725 mmHg 43%
    10:00 +11°C° 0 mm 3 mps 725 mmHg 39%
    11:00 +15°C° 0 mm 2 mps 725 mmHg 35%
    12:00 +17°C° 0 mm 2 mps 725 mmHg 31%
    13:00 +17°C° 0 mm 2 mps 725 mmHg 31%
    14:00 +18°C° 0 mm 2 mps 725 mmHg 31%
    15:00 +20°C° 0 mm 1 mps 725 mmHg 32%
    16:00 +18°C° 0 mm 1 mps 725 mmHg 36%
    17:00 +15°C° 0 mm 1 mps 725 mmHg 41%
    18:00 +14°C° 0 mm 1 mps 725 mmHg 45%
    19:00 +13°C° 0 mm 1 mps 725 mmHg 46%
    20:00 +13°C° 0 mm 1 mps 725 mmHg 47%
    21:00 +12°C° 0 mm 1 mps 725 mmHg 49%
    22:00 +11°C° 0 mm 1 mps 725 mmHg 50%
    23:00 +11°C° 0 mm 1 mps 724 mmHg 51%

    Tomorrow, 28 February, Friday

    Time Temperature Precipitation Wind Pressure Humidity
    00:00 +11°C° 0 mm 1 mps 724 mmHg 52%
    01:00 +10°C° 0 mm 1 mps 724 mmHg 53%
    02:00 +10°C° 0 mm 1 mps 723 mmHg 53%
    03:00 +10°C° 0 mm 1 mps 723 mmHg 53%
    04:00 +9°C° 0 mm 1 mps 723 mmHg 53%
    05:00 +9°C° 0 mm 1 mps 722 mmHg 52%
    06:00 +9°C° 0 mm 1 mps 722 mmHg 52%
    07:00 +9°C° 0 mm 1 mps 722 mmHg 51%
    08:00 +10°C° 0 mm 1 mps 722 mmHg 51%
    09:00 +10°C° 0 mm 2 mps 722 mmHg 50%
    10:00 +11°C° 0 mm 4 mps 723 mmHg 52%
    11:00 +11°C° 0 mm 6 mps 723 mmHg 53%
    12:00 +12°C° 0 mm 8 mps 723 mmHg 55%
    13:00 +11°C° 0.1 mm 9 mps 724 mmHg 57%
    14:00 +9°C° 0.1 mm 10 mps 724 mmHg 59%
    15:00 +7°C° 0.1 mm 10 mps 725 mmHg 61%
    16:00 +7°C° 0 mm 10 mps 726 mmHg 62%
    17:00 +6°C° 0 mm 10 mps 726 mmHg 62%
    18:00 +5°C° 0 mm 9 mps 727 mmHg 63%
    19:00 +4°C° 0 mm 8 mps 727 mmHg 67%
    20:00 +2°C° 0 mm 8 mps 728 mmHg 72%
    21:00 +3°C° 0 mm 7 mps 728 mmHg 76%
    22:00 +2°C° 0 mm 5 mps 728 mmHg 80%
    23:00 +3°C° 0 mm 3 mps 729 mmHg 85%

    Day after tomorrow, 29 February, Saturday

    Time Temperature Precipitation Wind Pressure Humidity
    00:00 +3°C° 0 mm 2 mps 729 mmHg 89%
    01:00 +4°C° 0 mm 1 mps 729 mmHg 89%
    02:00 +4°C° 0 mm 1 mps 729 mmHg 89%
    03:00 +3°C° 0 mm 1 mps 729 mmHg 88%
    04:00 +3°C° 0 mm 1 mps 728 mmHg 88%
    05:00 +2°C° 0 mm 2 mps 728 mmHg 87%
    06:00 +2°C° 0 mm 3 mps 728 mmHg 86%
    07:00 +2°C° 0 mm 3 mps 727 mmHg 83%
    08:00 +3°C° 0 mm 4 mps 727 mmHg 79%
    09:00 +2°C° 0 mm 5 mps 727 mmHg 76%
    10:00 +5°C° 0 mm 5 mps 726 mmHg 71%
    11:00 +5°C° 0 mm 6 mps 726 mmHg 66%
    12:00 +7°C° 0 mm 6 mps 725 mmHg 61%
    13:00 +7°C° 0 mm 6 mps 725 mmHg 61%
    14:00 +7°C° 0 mm 6 mps 725 mmHg 60%
    15:00 +8°C° 0 mm 5 mps 724 mmHg 60%
    16:00 +7°C° 0 mm 5 mps 724 mmHg 62%
    17:00 +7°C° 0 mm 5 mps 724 mmHg 65%
    18:00 +6°C° 0 mm 5 mps 724 mmHg 67%
    19:00 +5°C° 0 mm 6 mps 725 mmHg 67%
    20:00 +4°C° 0 mm 6 mps 725 mmHg 67%
    21:00 +4°C° 0 mm 6 mps 725 mmHg 67%
    22:00 +3°C° 0 mm 6 mps 725 mmHg 67%
    23:00 +3°C° 0 mm 5 mps 725 mmHg 68%

    1 March, Sunday

    Time Temperature Precipitation Wind Pressure Humidity
    00:00 +4°C° 0 mm 4 mps 725 mmHg 69%
    01:00 +3°C° 0.2 mm 4 mps 726 mmHg 70%
    02:00 +3°C° 0.2 mm 4 mps 726 mmHg 71%
    03:00 +1°C° 0.2 mm 4 mps 726 mmHg 72%
    04:00 +1°C° 0.4 mm 4 mps 727 mmHg 77%
    05:00 0°C° 0.4 mm 5 mps 727 mmHg 83%
    06:00 -1°C° 0.4 mm 5 mps 728 mmHg 88%
    07:00 -1°C° 0.4 mm 5 mps 729 mmHg 90%
    08:00 -1°C° 0.4 mm 4 mps 729 mmHg 92%
    09:00 -1°C° 0.4 mm 4 mps 730 mmHg 94%
    10:00 -1°C° 0.1 mm 4 mps 730 mmHg 93%
    11:00 0°C° 0.1 mm 4 mps 731 mmHg 91%
    12:00 0°C° 0.1 mm 4 mps 731 mmHg 89%
    13:00 0°C° 0.1 mm 4 mps 731 mmHg 90%
    14:00 0°C° 0.1 mm 4 mps 731 mmHg 91%
    15:00 0°C° 0.1 mm 4 mps 731 mmHg 92%
    16:00 +1°C° 0.1 mm 3 mps 732 mmHg 91%
    17:00 +1°C° 0.1 mm 3 mps 732 mmHg 89%
    18:00 +1°C° 0.1 mm 3 mps 732 mmHg 88%
    19:00 +1°C° 0.1 mm 3 mps 733 mmHg 89%
    20:00 +2°C° 0.1 mm 2 mps 733 mmHg 89%
    21:00 +2°C° 0.1 mm 2 mps 734 mmHg 90%
    22:00 +1°C° 0 mm 2 mps 734 mmHg 91%
    23:00 +1°C° 0 mm 2 mps 734 mmHg 92%

    2 March, Monday

    Time Temperature Precipitation Wind Pressure Humidity
    00:00 +1°C° 0 mm 2 mps 734 mmHg 92%
    01:00 +1°C° 0 mm 2 mps 734 mmHg 92%
    02:00 +2°C° 0 mm 1 mps 734 mmHg 91%
    03:00 +1°C° 0 mm 1 mps 734 mmHg 91%
    04:00 +1°C° 0 mm 1 mps 734 mmHg 90%
    05:00 -1°C° 0 mm 2 mps 734 mmHg 90%
    06:00 -1°C° 0 mm 2 mps 734 mmHg 89%
    07:00 +1°C° 0 mm 2 mps 734 mmHg 84%
    08:00 +1°C° 0 mm 3 mps 734 mmHg 80%
    09:00 +2°C° 0 mm 3 mps 735 mmHg 75%
    10:00 +3°C° 0 mm 3 mps 734 mmHg 70%
    11:00 +4°C° 0 mm 3 mps 734 mmHg 66%
    12:00 +5°C° 0 mm 3 mps 734 mmHg 61%
    13:00 +5°C° 0 mm 4 mps 733 mmHg 59%
    14:00 +6°C° 0 mm 4 mps 733 mmHg 57%
    15:00 +6°C° 0 mm 4 mps 733 mmHg 55%
    16:00 +5°C° 0 mm 4 mps 733 mmHg 59%
    17:00 +5°C° 0 mm 3 mps 732 mmHg 63%
    18:00 +4°C° 0 mm 3 mps 732 mmHg 66%
    19:00 +3°C° 0 mm 4 mps 732 mmHg 69%
    20:00 +3°C° 0 mm 4 mps 732 mmHg 71%
    21:00 +1°C° 0 mm 4 mps 732 mmHg 74%
    22:00 +1°C° 0 mm 4 mps 732 mmHg 75%
    23:00 0°C° 0 mm 4 mps 732 mmHg 77%

    3 March, Tuesday

    Time Temperature Precipitation Wind Pressure Humidity
    00:00 +1°C° 0 mm 3 mps 732 mmHg 78%
    01:00 +1°C° 0 mm 3 mps 732 mmHg 79%
    02:00 +1°C° 0 mm 3 mps 732 mmHg 80%
    03:00 +1°C° 0 mm 3 mps 732 mmHg 81%
    04:00 +2°C° 0 mm 2 mps 732 mmHg 80%
    05:00 +2°C° 0 mm 2 mps 732 mmHg 80%
    06:00 +2°C° 0 mm 2 mps 732 mmHg 80%
    07:00 +2°C° 0 mm 2 mps 732 mmHg 76%
    08:00 +3°C° 0 mm 2 mps 732 mmHg 72%
    09:00 +4°C° 0 mm 2 mps 733 mmHg 69%
    10:00 +6°C° 0 mm 2 mps 733 mmHg 62%
    11:00 +7°C° 0 mm 3 mps 733 mmHg 56%
    12:00 +9°C° 0 mm 3 mps 733 mmHg 49%
    13:00 +10°C° 0 mm 3 mps 733 mmHg 44%
    14:00 +12°C° 0 mm 2 mps 733 mmHg 38%
    15:00 +13°C° 0 mm 2 mps 733 mmHg 32%
    16:00 +12°C° 0 mm 2 mps 733 mmHg 38%
    17:00 +10°C° 0 mm 2 mps 733 mmHg 43%
    18:00 +9°C° 0 mm 3 mps 733 mmHg 48%
    19:00 +8°C° 0 mm 3 mps 733 mmHg 51%
    20:00 +8°C° 0 mm 3 mps 733 mmHg 54%
    21:00 +7°C° 0 mm 3 mps 733 mmHg 56%
    22:00 +7°C° 0 mm 3 mps 733 mmHg 56%
    23:00 +7°C° 0 mm 3 mps 733 mmHg 56%
    Show more